RH
67 72 74 71 72 77 72 62 62 67 70 63 43 27 20 14 9 7 7 9 12 12 10 10 10 9 8 8 8 7 5 5 4 4 4 4 6 7 7 7 6 5 5 6 7 8 8 9 11 12 13 15 16 16 17 18 18 19 20 21 22 25 27
59 66 75 76 72 72 69 63 61 64 70 71 54 33 22 16 10 7 7 9 12 13 11 10 10 9 9 8 7 7 6 5 4 3 4 3 4 6 7 8 7 6 5 5 7 9 10 11 11 12 14 15 15 15 15 14 14 13 14 15 16 18 21
50 51 62 72 70 67 65 62 61 63 68 71 61 41 27 20 14 8 7 8 12 13 10 9 10 9 9 8 7 7 6 5 4 4 3 3 3 4 7 8 8 7 5 5 8 9 10 11 12 13 14 14 13 12 12 11 11 10 10 10 10 11 13
49 43 50 66 70 66 64 63 60 62 67 70 65 52 37 26 18 11 7 8 10 12 10 7 9 10 8 8 7 7 6 5 4 4 3 3 3 4 6 8 8 7 6 6 8 10 11 11 13 13 13 12 12 11 10 9 8 8 8 8 8 8 8
51 47 45 57 65 64 63 62 60 60 66 72 71 63 48 32 21 14 8 7 9 12 11 7 7 9 8 7 7 6 5 5 4 4 3 3 3 3 5 6 7 7 6 7 8 10 11 12 12 12 11 11 11 10 9 8 7 7 7 8 7 7 8
52 56 48 46 51 59 64 65 63 63 67 74 75 71 58 40 27 21 14 9 7 10 11 8 5 7 7 7 6 5 4 4 4 3 3 3 3 3 4 5 6 6 6 7 9 10 11 11 11 11 11 10 9 8 7 6 7 9 10 11 9 9 10
39 53 55 50 51 61 67 68 68 70 73 76 74 72 65 48 34 29 23 15 9 8 10 9 6 5 6 6 5 5 4 4 4 3 3 3 3 3 4 4 5 6 6 7 9 10 10 10 10 10 9 9 8 6 6 7 10 14 17 18 16 15 15
23 36 50 54 56 64 71 72 73 77 80 78 72 69 66 52 37 32 30 22 13 7 7 10 9 6 5 5 5 4 4 4 3 3 3 2 3 3 3 4 5 5 6 6 8 9 9 9 9 9 8 7 5 6 10 15 19 21 24 25 25 23 21
22 27 41 50 51 53 61 67 73 81 84 79 72 70 68 56 41 33 32 28 18 9 7 9 11 8 5 5 5 4 4 4 3 3 3 3 3 3 3 4 4 4 5 6 7 8 8 7 7 7 6 5 7 13 19 24 28 31 33 34 33 31 29
25 24 33 46 52 53 55 59 65 74 77 73 69 69 68 61 48 36 33 30 22 15 11 10 11 11 7 4 4 5 4 3 3 3 3 3 3 3 3 3 4 4 4 5 6 6 6 6 6 5 6 10 17 24 30 33 37 39 39 38 37 36 35
23 23 23 30 41 50 57 61 60 61 63 61 61 64 66 63 54 43 35 30 25 20 17 13 12 12 11 6 4 4 4 3 3 3 3 3 2 2 3 3 4 4 4 4 5 5 5 5 5 7 13 20 28 33 38 41 44 42 38 35 35 37 38
15 20 21 22 24 28 40 53 57 55 55 55 54 56 59 61 59 50 40 31 25 22 21 17 13 12 12 10 5 3 3 3 3 3 3 3 3 3 3 3 4 3 4 4 4 4 5 5 7 13 22 29 35 40 44 47 45 39 32 29 30 33 36
8 11 17 25 26 21 23 35 45 47 46 48 51 52 52 57 60 55 42 29 20 19 20 18 13 12 12 12 9 5 4 3 3 3 3 3 3 3 3 4 3 3 4 3 4 5 5 6 12 22 30 35 41 45 48 48 42 34 28 26 27 29 32
4 4 9 21 27 22 21 31 42 46 44 45 50 52 50 53 59 55 43 28 15 12 15 14 11 10 11 11 10 7 5 5 4 3 3 3 3 3 4 3 3 4 4 4 5 5 5 11 20 28 33 39 44 47 49 47 39 31 26 24 23 23 26
3 2 3 10 17 18 22 31 41 48 52 53 54 54 52 53 55 53 43 28 14 8 9 8 7 8 8 9 9 8 7 7 5 4 3 3 3 3 3 4 4 4 3 4 4 4 8 17 24 29 36 41 45 48 50 45 37 29 25 21 18 17 18
3 3 1 3 8 13 21 32 40 51 61 59 52 52 55 54 52 51 45 30 13 6 6 5 4 5 5 6 7 7 7 7 6 4 3 3 4 4 4 4 4 4 4 3 3 6 15 21 24 30 38 42 45 50 51 44 35 29 23 18 15 13 12
3 3 3 3 6 10 17 31 47 62 68 56 44 49 56 54 52 51 46 31 13 5 5 4 4 4 4 4 5 5 6 6 5 3 3 4 4 4 4 4 3 3 3 3 6 13 20 21 23 32 40 41 43 50 52 45 36 29 23 18 15 12 11
6 5 4 3 7 12 16 29 49 68 71 53 43 51 57 55 53 50 43 29 13 5 5 5 4 4 4 4 4 4 5 5 4 3 3 4 4 4 4 3 3 3 3 5 13 20 21 21 27 37 41 40 42 49 53 48 40 33 25 19 15 13 12
8 7 5 4 7 12 17 31 49 64 67 55 47 52 54 53 53 47 37 26 13 6 5 5 4 4 4 4 4 4 4 4 3 3 4 4 4 4 4 3 3 3 4 11 18 20 20 24 33 39 41 40 42 49 54 50 44 37 28 20 16 14 14
10 6 4 3 7 12 21 37 48 56 62 59 55 57 57 56 54 42 30 22 13 6 4 4 4 4 4 4 4 4 4 3 3 4 4 4 4 4 4 4 3 3 7 13 17 18 22 28 34 39 41 42 44 48 51 52 49 41 31 22 17 15 16
12 4 3 3 4 10 22 36 43 48 57 63 65 65 63 61 55 40 28 21 13 6 4 4 5 5 5 5 4 4 4 4 4 4 4 4 4 3 4 3 3 6 11 16 19 23 29 34 38 41 43 43 45 46 48 51 52 46 35 26 20 17 18
12 4 5 5 3 9 25 39 45 51 59 65 69 70 67 64 56 41 30 22 13 8 5 4 5 6 6 6 5 5 5 4 4 5 4 4 4 3 4 4 6 11 17 23 29 35 39 41 43 45 46 47 47 47 48 51 53 51 42 31 24 21 20
21 13 9 6 10 25 42 51 57 63 65 63 64 69 70 67 58 44 33 24 16 11 7 5 6 7 7 8 8 8 8 7 6 5 4 4 4 5 7 10 16 23 29 35 40 42 42 40 39 41 44 47 49 49 51 51 53 54 49 39 32 26 23
34 25 16 11 18 34 46 54 63 72 69 55 49 58 68 69 61 49 36 26 19 14 10 7 6 6 6 9 12 14 16 17 16 15 14 14 16 19 23 27 32 36 39 40 39 37 33 28 26 25 28 36 46 51 54 53 53 55 53 48 42 34 28
40 33 24 18 20 28 41 57 70 74 63 42 34 46 62 68 65 55 41 30 23 16 11 10 9 9 11 14 18 22 24 25 26 28 30 31 34 38 41 41 42 41 39 36 33 31 28 24 21 20 23 33 47 55 57 55 55 56 56 55 51 43 36
41 37 31 25 21 27 45 65 73 68 54 35 28 43 61 67 67 61 49 40 33 22 15 15 14 14 20 26 28 30 31 32 34 38 41 44 49 51 50 47 47 45 41 38 36 34 33 31 32 34 38 45 55 64 66 61 57 57 57 58 57 52 46
42 40 37 30 24 31 51 69 71 64 56 47 41 49 62 65 65 64 60 55 50 36 23 20 21 26 37 43 42 44 47 49 51 52 54 58 61 61 59 57 56 52 46 42 38 35 33 34 37 42 46 51 60 72 79 74 65 59 58 59 60 59 56
43 42 41 33 25 31 52 70 72 64 61 61 58 56 59 61 64 70 72 70 66 54 37 32 36 46 56 57 55 59 64 65 66 66 65 67 68 67 67 67 65 61 55 49 45 43 42 42 43 45 47 52 60 73 84 86 78 68 61 59 60 62 62
43 42 39 32 27 37 56 71 74 69 65 65 63 59 60 64 69 77 79 78 78 69 52 46 52 61 65 63 62 68 71 70 72 73 72 72 73 71 70 69 67 66 63 60 57 55 54 53 52 52 54 57 61 66 74 82 85 80 72 64 61 61 63
44 41 36 31 32 45 62 71 74 73 69 65 61 59 62 69 75 79 80 80 82 76 60 52 56 62 66 65 67 73 73 71 72 72 71 73 73 72 72 71 69 70 70 68 67 64 60 58 55 54 57 62 65 64 65 71 79 81 79 75 69 64 63
43 40 34 31 35 46 60 69 72 72 70 67 59 53 58 69 74 76 76 79 83 80 67 58 57 59 62 66 73 78 77 74 73 71 70 72 72 71 72 73 73 73 72 71 72 70 67 64 58 53 53 58 65 67 65 64 68 72 76 79 76 68 64
37 33 31 33 37 44 52 58 61 64 65 61 52 47 54 64 68 73 77 77 79 79 72 66 64 63 62 69 78 82 80 77 77 75 73 73 72 70 69 70 70 71 70 70 71 71 69 68 64 57 52 52 60 67 67 64 63 63 65 70 72 70 67
30 27 30 36 41 46 49 48 47 50 52 49 45 44 50 55 56 62 68 67 66 70 71 72 72 70 69 72 77 79 78 77 79 80 78 76 74 71 69 68 68 67 67 68 68 68 69 68 66 63 57 50 53 63 70 69 66 62 58 57 59 62 66
29 27 30 36 41 47 52 49 45 45 43 42 42 41 42 44 46 48 53 55 55 59 65 69 70 71 75 77 75 74 75 76 79 81 80 78 76 73 70 68 68 67 66 67 66 66 66 66 66 66 63 54 51 57 66 71 71 70 65 59 53 50 51
36 36 34 33 37 46 54 56 57 57 51 45 41 38 37 39 39 39 44 50 51 52 56 61 63 67 76 81 79 77 77 77 78 79 77 76 75 73 70 69 69 68 67 66 66 65 64 64 63 64 63 58 52 52 57 65 70 72 71 69 65 58 50
46 47 40 33 33 40 49 57 60 59 55 49 44 41 38 35 34 38 43 45 42 42 47 52 55 58 65 73 77 79 79 80 80 80 78 76 73 71 70 69 68 68 67 66 65 64 63 62 62 62 61 59 55 52 52 57 63 66 65 67 69 68 61
58 56 47 39 35 35 40 48 49 49 51 51 49 46 39 30 30 35 36 32 29 31 36 41 45 49 54 60 66 71 74 77 78 78 78 75 72 69 68 66 64 61 58 55 53 51 50 51 53 55 55 52 51 51 51 53 57 59 59 60 62 62 59
62 62 55 45 39 36 36 41 44 47 51 54 54 51 42 30 26 26 23 20 19 21 23 26 30 35 40 46 53 59 64 69 71 71 71 69 66 64 61 59 55 50 43 38 33 30 29 29 31 35 38 38 38 39 42 46 50 51 51 52 51 50 49
Wind_Speed
22 22 25 26 27 26 23 22 20 17 15 13 14 15 17 18 20 21 22 23 22 21 22 24 26 27 27 26 26 24 21 18 18 18 19 19 18 17 15 14 15 15 15 14 13 13 13 13 13 13 12 12 11 10 9 8 8 7 7 8 8 9 10
27 25 26 27 28 26 24 24 23 21 18 15 14 15 16 17 19 20 21 23 23 22 22 24 27 27 28 28 27 25 22 20 19 19 18 18 17 17 16 16 15 15 15 14 13 13 14 14 13 13 12 11 10 8 7 5 4 3 3 3 3 3 4
31 30 28 28 28 25 24 26 25 23 19 16 14 14 15 18 19 21 22 24 24 23 23 25 28 29 30 30 28 26 24 22 21 20 19 18 18 18 18 18 17 16 15 14 13 14 15 14 14 13 12 10 9 8 6 5 3 2 2 1 1 1 1
30 32 30 29 28 26 25 27 27 24 21 17 15 14 15 18 20 22 23 24 25 24 23 25 28 30 31 31 30 28 26 24 23 22 21 20 20 20 20 20 19 16 15 15 15 15 15 15 14 13 11 10 9 8 6 5 4 4 4 4 3 3 3
30 31 32 32 31 28 27 29 29 26 22 19 16 15 17 19 22 23 23 24 26 26 26 27 30 33 33 32 31 30 28 27 26 25 23 22 21 21 21 21 20 18 17 17 17 16 16 15 14 13 11 10 9 8 7 6 5 5 5 5 5 5 4
31 30 32 33 31 29 29 30 29 27 24 21 18 16 17 20 22 23 23 24 25 26 27 28 30 33 34 33 33 32 30 29 28 27 25 24 23 22 23 23 22 19 19 18 18 17 16 15 14 13 12 11 10 9 8 7 7 6 6 6 6 5 5
30 31 31 31 30 31 31 31 30 28 25 22 20 20 20 22 23 23 24 24 25 26 27 27 28 30 32 33 33 32 31 30 29 28 26 25 24 24 25 25 23 21 20 20 19 18 16 15 15 14 13 12 11 10 9 9 8 8 7 7 7 7 6
25 29 31 31 31 32 33 33 31 29 27 26 24 22 22 22 23 24 24 24 25 26 26 27 27 28 30 31 32 32 32 32 31 29 27 26 25 25 25 25 24 23 22 21 20 19 18 16 16 15 14 13 12 12 11 10 10 9 9 9 9 8 8
21 24 28 30 30 31 33 34 33 32 30 28 25 23 22 22 23 23 24 25 25 25 26 27 27 28 29 30 31 32 33 33 32 30 28 26 26 26 26 26 25 24 22 22 22 20 19 18 17 16 15 14 13 13 12 12 11 11 11 10 10 10 10
25 24 25 27 28 28 30 33 35 35 33 31 28 26 24 23 23 23 24 25 25 25 26 27 28 29 29 29 31 33 33 33 32 30 28 27 27 27 27 27 26 25 24 24 23 21 20 19 18 16 15 15 15 14 14 14 13 13 13 12 12 12 12
29 29 28 27 27 28 30 32 34 34 34 33 31 28 26 24 23 23 24 25 25 26 28 29 29 29 29 29 31 32 32 32 31 30 29 28 28 28 29 28 27 25 25 25 24 22 21 20 19 17 16 16 16 16 15 15 14 14 14 14 14 14 13
32 33 32 31 29 28 30 31 32 31 30 31 31 29 27 25 23 23 24 25 26 28 30 31 30 30 29 29 29 30 30 30 30 29 29 29 30 31 31 30 28 27 26 26 25 24 23 21 20 18 18 18 18 17 16 15 15 14 14 15 15 15 15
36 36 35 34 32 31 31 32 33 31 29 30 31 30 28 26 24 24 24 25 27 29 31 32 32 31 30 29 28 29 29 28 29 29 30 31 32 32 32 31 29 28 28 27 26 25 24 23 22 20 20 20 18 17 16 15 15 15 15 15 15 16 16
38 39 38 38 36 34 33 35 35 34 32 32 32 30 29 28 26 25 25 26 28 30 31 32 32 31 31 30 29 28 28 28 29 30 31 32 33 34 33 31 30 29 29 28 27 27 25 24 23 22 22 21 18 17 16 15 15 15 15 15 16 16 16
34 36 39 40 39 36 36 37 37 35 33 33 33 31 30 29 29 28 28 28 29 30 31 31 30 30 30 30 29 29 29 30 31 31 31 33 34 33 32 31 31 30 30 29 28 28 27 26 24 23 22 20 18 17 16 16 16 16 15 15 16 16 16
30 33 37 40 39 37 37 38 38 35 34 34 34 32 31 31 31 29 29 29 29 29 30 30 30 29 29 29 30 30 31 32 32 32 32 33 33 32 32 32 32 31 31 30 30 29 28 26 24 24 22 20 18 17 17 16 17 16 15 15 16 16 16
27 29 33 37 38 38 38 38 37 35 36 35 33 31 32 32 31 30 29 29 28 29 30 30 29 28 28 29 31 32 33 34 34 33 33 33 33 32 32 32 32 32 32 31 30 29 27 26 24 24 22 20 18 18 17 17 17 16 15 16 16 16 16
26 26 29 34 36 37 38 38 37 37 39 36 31 31 33 33 31 30 30 29 28 29 29 29 29 28 29 30 31 32 33 34 34 34 34 34 33 33 33 33 32 32 32 31 30 29 27 25 24 24 22 20 19 18 18 18 18 16 16 16 16 16 17
25 25 28 32 35 37 38 37 35 37 38 34 30 32 34 33 31 29 29 29 29 29 29 29 28 28 29 30 31 31 32 34 34 35 34 34 34 33 32 32 31 30 30 30 29 28 26 25 24 23 22 20 19 19 19 19 19 17 17 17 17 17 18
25 27 30 32 35 37 38 36 35 36 36 33 31 32 33 32 31 30 30 31 31 31 30 29 28 28 29 30 30 31 32 33 34 34 34 33 33 32 31 29 29 29 29 29 28 26 25 24 24 23 22 21 20 20 20 20 19 19 18 18 18 19 19
27 29 31 32 34 36 37 38 39 38 37 34 33 33 33 32 32 32 32 32 32 32 31 29 28 28 29 30 31 31 32 32 32 32 32 32 31 30 29 28 28 28 28 27 26 25 25 24 23 22 22 21 22 21 21 21 21 20 19 19 19 20 20
29 31 31 31 32 35 37 39 39 38 38 37 35 34 33 33 33 33 33 33 34 33 32 30 30 30 30 30 30 30 30 30 31 31 31 30 30 29 28 27 27 27 27 27 26 25 25 24 23 22 22 22 22 21 21 22 22 21 20 20 21 21 20
28 29 30 30 32 36 38 38 37 37 39 38 37 36 35 34 33 34 34 34 34 34 33 32 31 30 30 29 28 28 28 28 28 28 28 28 27 27 27 27 27 27 27 26 26 26 25 25 24 24 24 24 23 22 23 25 24 23 22 23 23 23 21
25 24 26 29 35 39 40 37 36 37 39 38 38 38 38 36 35 36 36 35 34 34 33 32 31 30 29 29 29 29 28 27 27 27 26 26 25 25 25 25 26 26 26 26 26 26 26 26 26 26 26 25 24 24 25 27 27 26 25 26 26 24 23
27 24 24 28 35 38 38 37 37 38 38 38 38 40 40 39 37 37 36 35 34 33 32 32 31 30 30 30 30 29 28 28 27 26 25 25 24 24 24 24 24 25 25 25 26 26 27 27 27 26 26 26 27 27 27 28 29 29 27 27 28 26 24
30 26 23 25 32 36 37 39 39 38 37 36 36 39 41 40 38 35 34 34 33 32 31 32 32 32 31 31 30 27 26 26 26 25 25 24 24 23 23 23 24 24 24 24 24 25 26 25 25 26 26 27 28 28 29 30 31 31 30 30 29 28 27
31 29 25 22 28 36 40 41 40 38 36 35 34 37 39 39 36 33 32 32 31 31 31 32 32 32 31 30 28 26 25 25 25 25 25 24 24 23 23 22 22 22 22 22 23 23 23 23 24 24 25 26 27 27 28 30 32 33 33 32 31 30 29
32 31 28 25 28 37 42 42 42 40 38 35 35 36 37 37 35 33 32 32 31 31 31 32 32 33 32 30 29 28 28 27 27 26 26 26 25 24 23 22 22 21 21 21 21 20 20 20 21 22 23 25 25 25 26 28 31 34 35 34 33 32 30
35 33 30 28 31 39 44 44 43 42 39 37 37 36 37 36 35 34 34 34 34 34 34 34 36 36 35 34 33 32 30 30 30 29 29 28 27 26 26 25 24 23 22 22 21 19 19 19 19 20 21 22 23 23 24 26 29 33 35 36 36 34 31
38 35 32 31 35 42 45 45 45 44 41 39 39 37 36 35 34 36 37 38 38 39 39 39 39 40 39 38 36 34 32 32 31 30 30 30 30 29 29 28 27 26 26 25 24 22 21 20 20 21 21 22 22 23 24 26 28 30 32 35 36 35 32
39 37 34 33 37 44 47 46 46 45 43 41 40 37 34 33 34 36 38 39 39 40 42 43 42 41 42 41 39 37 36 34 33 32 31 31 31 30 31 31 31 30 29 29 28 26 25 24 24 23 23 23 23 23 24 26 27 28 29 31 33 33 32
41 38 36 36 39 44 48 48 48 47 45 42 39 35 33 34 35 36 36 36 36 37 41 46 47 46 46 45 43 41 39 38 36 35 34 34 33 33 33 33 33 32 32 32 31 31 30 30 29 26 25 25 26 26 26 26 26 27 28 29 31 31 32
43 40 39 39 41 45 48 48 47 46 44 40 36 33 32 32 33 33 33 34 33 32 35 43 49 50 51 50 49 46 43 41 39 39 38 38 38 37 36 35 35 35 35 35 35 34 34 34 33 31 29 28 28 29 28 27 25 25 27 28 29 31 33
45 43 42 41 43 46 47 46 43 41 39 37 34 32 31 31 31 33 34 33 33 33 33 36 41 44 46 47 48 47 46 44 43 42 41 41 41 40 39 38 38 38 38 38 38 38 37 37 37 35 34 32 30 30 29 28 27 26 26 26 26 28 30
46 45 45 44 44 46 46 45 43 41 38 36 34 32 32 32 33 35 36 35 36 37 37 37 38 39 39 40 41 42 44 45 45 45 44 43 43 43 42 42 41 41 41 41 41 41 41 40 39 38 37 35 33 31 31 30 29 28 27 27 26 26 28
49 47 47 46 46 46 46 45 44 42 39 37 35 33 33 34 35 37 38 37 38 39 39 39 40 41 41 41 41 41 42 43 44 45 45 45 45 45 45 45 45 45 45 45 45 45 45 44 42 41 40 38 36 34 33 33 32 31 30 29 29 29 29
51 49 48 48 47 47 46 45 44 42 40 38 37 35 34 35 37 37 37 37 38 38 39 40 40 41 42 44 44 45 45 45 46 46 46 47 47 48 48 48 48 49 49 48 48 48 48 47 46 45 44 42 40 38 36 35 35 34 33 32 32 32 32
51 50 49 50 49 49 48 47 45 43 41 39 37 36 36 36 36 36 36 36 36 36 37 39 41 42 43 44 45 46 47 48 48 49 49 50 50 50 51 51 51 50 49 48 47 47 47 48 47 47 46 45 43 41 39 37 37 36 36 35 35 35 34
Wind_Direction
200 211 218 219 218 218 216 211 203 190 182 191 201 202 202 199 195 194 194 194 194 197 196 191 187 184 183 188 193 197 196 190 189 194 198 201 203 203 201 197 195 192 189 186 180 172 165 160 155 150 144 139 134 127 120 114 106 98 91 86 81 80 79
196 201 209 215 218 217 214 209 203 192 182 185 195 200 201 199 195 194 193 194 194 194 195 193 190 186 184 187 192 194 193 190 192 197 199 202 204 203 201 200 200 198 195 189 179 171 168 166 163 158 153 150 147 146 144 138 132 123 112 99 86 79 79
199 202 203 209 214 215 212 208 202 193 184 182 188 195 200 201 198 196 194 194 194 194 195 194 191 188 187 188 190 192 191 190 194 198 199 201 203 202 200 200 202 202 198 189 179 176 174 171 169 167 165 164 166 170 173 176 182 195 209 223 249 274 298
198 204 203 204 209 211 209 205 200 193 184 180 182 189 199 203 202 200 196 195 195 194 194 195 192 190 190 189 189 190 190 191 194 197 199 199 200 200 199 201 203 201 196 189 184 182 179 175 174 177 181 183 188 192 197 204 213 226 237 246 254 261 269
195 204 205 203 203 203 204 202 198 192 184 179 181 188 199 204 204 202 200 198 197 195 194 196 194 193 192 190 189 189 189 191 194 197 198 198 198 197 198 202 204 201 195 190 187 186 185 183 185 190 196 201 208 212 217 225 230 234 239 244 248 251 257
197 201 207 208 202 197 199 199 195 190 186 182 183 190 200 206 206 205 205 202 200 199 199 199 198 196 194 192 190 190 189 191 194 197 198 197 196 195 198 202 203 201 196 192 190 190 190 191 195 202 209 215 223 229 232 233 234 236 236 236 239 242 245
202 201 205 207 202 195 195 195 190 187 186 186 188 193 199 205 206 207 208 206 204 203 202 203 204 202 199 195 193 191 190 191 195 198 199 198 196 195 199 202 203 201 197 193 193 194 197 200 204 212 220 227 235 239 238 235 233 233 235 236 235 235 237
204 205 206 204 199 195 194 193 188 186 188 190 193 197 200 204 206 206 208 208 208 206 204 204 206 206 204 200 196 193 191 193 196 198 199 198 196 196 199 202 203 202 198 195 197 199 203 207 212 219 227 234 239 241 241 240 239 236 236 236 235 234 234
203 205 207 208 206 202 199 196 190 188 190 192 195 198 202 205 206 205 207 209 209 207 206 206 207 207 207 203 200 197 195 195 197 198 199 199 197 198 200 202 204 203 199 198 200 203 207 212 217 222 227 232 237 239 241 243 244 244 241 239 237 235 232
203 201 200 206 211 211 208 205 200 195 192 193 195 198 202 205 205 204 206 208 208 207 207 208 208 208 207 205 204 202 200 199 198 198 199 199 198 198 200 202 204 202 201 202 203 205 210 214 218 220 222 228 233 236 240 243 246 248 248 244 239 234 231
204 203 199 199 205 210 212 212 210 205 200 198 198 199 200 203 205 205 206 207 208 208 207 207 208 208 207 207 207 206 204 203 201 200 199 198 198 198 200 203 203 202 202 203 204 207 212 215 218 218 220 225 232 236 240 245 249 251 251 247 240 233 229
205 205 202 201 202 207 212 213 213 212 209 207 205 203 200 200 204 206 206 207 208 209 208 206 206 206 206 208 209 208 208 206 204 203 202 199 198 198 200 202 202 202 203 204 204 208 211 215 218 219 221 227 233 238 242 246 250 251 249 245 240 234 229
207 204 202 203 204 205 208 210 211 212 212 214 213 209 203 199 202 206 208 208 209 210 210 206 204 204 205 207 207 207 207 207 206 206 204 201 198 199 200 201 201 201 203 203 204 207 210 214 217 219 224 229 233 238 243 247 250 250 248 244 241 237 233
209 204 200 202 204 204 203 205 208 208 210 214 214 211 205 200 200 203 207 209 210 210 209 207 205 203 204 205 205 205 205 205 206 207 204 201 199 199 200 200 201 202 202 203 204 207 211 214 217 221 226 231 234 239 244 247 248 249 247 245 242 239 237
211 209 205 203 201 199 200 202 205 205 207 212 214 210 205 201 199 202 206 209 209 208 207 206 204 203 204 204 204 204 205 205 205 205 204 201 200 201 201 201 202 203 203 204 205 208 212 215 219 223 228 231 234 238 243 246 247 247 246 245 244 240 238
213 213 211 206 199 196 197 201 205 205 207 212 214 210 206 202 200 202 208 211 209 207 206 204 203 203 204 204 205 206 206 205 204 203 202 201 201 202 202 202 204 204 204 206 207 209 213 218 221 225 228 231 234 236 240 243 247 247 245 243 242 240 238
214 213 211 207 200 195 195 199 202 204 209 215 216 211 206 202 201 203 209 211 208 206 205 203 202 202 203 204 205 207 207 205 202 200 199 200 202 204 205 205 205 205 206 207 208 211 215 219 222 226 228 231 234 237 239 242 246 247 244 241 240 238 234
212 209 210 209 203 198 196 196 198 204 212 218 217 209 203 201 201 205 209 210 208 205 204 203 201 200 201 203 204 206 206 204 201 199 199 200 203 206 207 207 206 206 207 207 209 213 216 219 222 226 229 231 234 237 239 242 246 247 245 242 240 236 232
211 209 211 212 209 204 197 192 197 207 215 219 215 207 203 202 203 205 208 209 207 205 203 202 200 200 201 203 203 203 203 202 200 199 200 203 206 210 210 210 209 208 208 209 212 215 217 219 222 224 227 231 234 236 239 242 245 245 243 241 239 237 234
209 209 210 210 211 208 199 196 204 211 213 212 208 203 202 202 201 202 204 206 206 204 202 200 199 200 202 202 202 201 201 201 200 202 204 207 210 213 214 213 212 211 211 212 215 217 218 220 222 223 225 229 232 235 239 243 244 243 240 238 237 237 235
208 206 204 204 207 205 201 203 209 210 207 205 202 200 201 200 199 200 202 203 204 203 200 199 198 199 201 201 201 201 202 202 203 205 208 211 212 214 214 214 212 212 213 215 217 218 220 221 222 223 225 228 232 235 239 243 244 243 240 237 236 236 235
203 201 197 197 200 196 194 199 204 203 203 202 200 199 200 200 200 201 200 201 203 202 200 199 199 199 201 201 200 201 202 203 205 207 209 211 211 211 211 210 210 211 213 216 218 219 221 223 225 226 229 231 234 237 240 244 245 243 240 238 237 236 234
200 196 192 191 190 187 188 195 199 201 203 203 200 201 202 202 202 201 200 200 202 203 202 202 202 202 202 201 199 200 201 202 204 206 207 208 208 208 208 208 209 212 215 217 220 222 224 226 228 230 232 235 237 238 241 244 245 243 240 239 239 237 233
199 196 193 190 188 188 192 195 197 202 206 204 203 203 203 203 203 202 201 201 201 203 204 204 204 205 203 202 201 200 199 200 201 202 203 205 205 206 209 210 213 217 219 221 224 227 229 231 232 233 235 238 240 241 242 244 246 244 242 241 242 240 236
198 197 195 193 193 194 194 194 196 202 207 207 206 205 204 204 205 204 204 203 203 205 205 203 204 204 201 201 202 202 200 200 200 200 201 203 205 207 210 213 216 219 222 225 228 231 233 234 235 235 236 238 241 243 243 245 248 248 246 245 245 243 239
199 199 197 196 198 197 193 192 197 204 209 211 209 206 206 207 207 207 207 205 204 204 203 201 201 200 198 199 200 200 198 197 197 198 200 201 204 206 209 213 217 220 223 226 229 232 234 235 236 237 237 238 241 243 243 245 247 249 248 247 247 246 243
202 204 206 204 201 196 192 194 199 205 210 212 209 206 207 208 208 209 209 207 204 202 201 201 199 196 195 196 195 192 191 192 194 197 200 203 205 207 209 213 218 222 223 225 228 231 234 235 235 237 239 240 241 242 243 244 246 248 250 250 250 250 248
206 208 210 211 205 196 192 196 202 207 209 210 207 206 207 208 209 210 209 207 204 201 200 199 197 194 192 193 193 193 194 197 200 202 205 208 210 212 215 217 221 224 225 226 229 231 236 239 239 240 242 244 245 245 245 246 246 248 250 251 252 252 252
208 210 210 210 204 196 194 198 204 209 210 210 208 207 205 206 209 210 211 210 206 201 199 198 194 192 193 195 197 200 203 205 207 208 211 213 214 217 220 223 226 229 230 231 232 233 237 242 245 245 246 248 250 249 248 248 248 248 248 250 252 254 254
208 211 210 207 202 197 196 199 205 211 213 213 212 209 205 205 209 212 214 215 210 202 199 198 196 194 194 196 201 206 208 208 210 213 215 217 218 219 222 225 228 230 233 235 236 237 240 244 247 248 247 248 250 252 251 250 249 249 249 250 252 254 256
208 212 211 206 201 198 198 200 206 211 214 215 215 212 207 207 212 215 217 221 220 211 202 199 198 198 197 200 204 208 208 208 212 215 217 219 220 221 224 226 228 230 233 236 239 240 242 245 248 249 247 247 248 251 252 251 250 251 252 252 253 254 256
211 212 210 206 201 199 200 203 206 210 213 216 217 214 210 212 216 217 219 224 228 225 214 205 202 201 202 204 207 209 208 209 211 213 216 219 221 223 226 228 230 233 235 238 240 241 242 244 246 247 246 246 245 247 250 252 252 252 251 252 254 256 257
212 212 208 205 201 200 202 205 208 210 213 214 215 213 212 214 216 217 218 219 223 228 224 215 209 207 208 209 210 210 210 211 211 212 216 219 220 222 225 227 230 234 237 239 241 243 243 244 245 246 245 245 245 245 246 249 253 254 254 254 255 256 257
209 208 206 204 202 201 204 207 209 210 211 212 212 213 214 216 216 215 215 214 215 219 223 222 218 217 217 218 218 215 212 211 210 212 216 220 222 224 225 226 230 233 236 239 241 243 245 245 246 246 246 246 246 246 246 248 250 254 257 258 258 256 255
205 205 205 204 203 202 205 209 210 210 211 212 214 215 216 218 217 215 214 216 217 217 219 222 223 223 223 223 223 220 216 214 213 215 217 220 223 226 227 227 229 232 235 238 241 243 245 247 248 248 248 248 248 248 248 248 248 249 252 255 257 257 256
203 203 203 204 204 203 205 208 210 212 214 215 216 218 218 218 217 216 217 218 219 219 220 222 224 225 225 225 225 224 223 221 221 221 222 223 225 228 230 231 232 232 234 236 239 240 242 244 246 248 249 249 249 249 248 248 248 249 249 250 252 254 256
201 202 203 203 204 204 205 208 210 212 214 215 216 218 219 218 217 217 218 218 219 220 221 222 223 225 226 227 228 228 227 227 227 227 227 227 228 230 232 234 235 235 236 238 240 242 244 245 246 248 249 250 249 249 248 248 248 250 250 251 252 254 256
202 204 204 204 204 204 205 207 209 210 212 215 217 218 219 218 216 216 216 217 218 220 222 223 224 225 226 228 229 230 230 230 231 231 232 232 233 234 235 237 239 241 243 245 246 248 249 250 249 250 250 250 250 249 249 248 249 250 251 252 254 255 257